Location: Newark
(49.7697°N, 2.7094°E)
Time: 17:53:30
(UTC+00:00)

NANOSAT C BR1 - Visible Passes

Search period start: 10 April 2020 00:00
Search period end: 20 April 2020 00:00
Orbit: 589 x 606 km, 97.9° (Epoch: 09 April)

Date Brightness Start Highest point End Pass type
(mag) Time Alt. Az. Time Alt. Az. Time Alt. Az.
10 Apr ? 00:42:22 10° NNE 00:44:36 29° NNE 00:44:36 29° NNE visible
10 Apr ? 02:18:55 10° NNW 02:21:18 18° NW 02:21:18 18° NW visible
11 Apr ? 00:52:44 10° NNE 00:55:13 34° NNE 00:55:13 34° NNE visible
11 Apr ? 02:29:41 10° NNW 02:31:55 15° NW 02:31:55 15° NW visible
12 Apr ? 01:03:08 10° NNE 01:05:50 39° NNE 01:05:50 39° NNE visible
12 Apr ? 02:40:38 10° NNW 02:42:21 12° NW 02:42:33 12° WNW visible
12 Apr ? 23:39:25 10° ENE 23:39:45 11° ENE 23:39:45 11° ENE visible
13 Apr ? 01:13:34 10° N 01:16:27 42° N 01:16:27 42° N visible
13 Apr ? 23:49:19 10° NE 23:50:22 14° ENE 23:50:22 14° ENE visible
14 Apr ? 01:24:02 10° N 01:27:04 42° NNW 01:27:04 42° NNW visible
14 Apr ? 23:59:23 10° NE 00:00:59 17° ENE 00:00:59 17° ENE visible
15 Apr ? 01:34:31 10° N 01:37:41 38° NW 01:37:41 38° NW visible
16 Apr ? 00:09:32 10° NE 00:11:36 21° ENE 00:11:36 21° ENE visible
16 Apr ? 01:45:02 10° N 01:48:18 33° NW 01:48:18 33° NW visible
17 Apr ? 00:19:46 10° NNE 00:22:12 27° ENE 00:22:12 27° ENE visible
17 Apr ? 01:55:35 10° N 01:58:55 28° WNW 01:58:55 28° WNW visible
18 Apr ? 00:30:03 10° NNE 00:32:49 33° ENE 00:32:49 33° ENE visible
18 Apr ? 02:06:11 10° N 02:09:29 23° WNW 02:09:31 23° WNW visible
19 Apr ? 00:40:22 10° NNE 00:43:26 42° NE 00:43:26 42° NE visible
19 Apr ? 02:16:50 10° NNW 02:19:47 19° WNW 02:20:08 19° WNW visible
